Location: La Fredeussais
(48.1780°N, 1.3980°W)
Time: 16:56:39
(UTC+00:00)

Cosmos 1818 - Pass Details

Date: 09 May 2021
Orbit: 771 x 802 km, 65.0° (Epoch: 24 June)

Event Time Altitude Azimuth Distance (km) Brightness Sun altitude
Rises 23:28:11 0° 321° (NW) 3,321 7.7 -23.8°
Reaches altitude 10° 23:30:37 10° 320° (NW) 2,387 6.8 -23.8°
Maximum altitude 23:36:07 77° 235° (SW) 827 3.5 -23.9°
Enters shadow 23:36:55 64° 173° (S) 888 3.5 -24.0°
